Precipitable_Water
0.74 0.73 0.71 0.68 0.68 0.67 0.65 0.64 0.63 0.62 0.60 0.60 0.58 0.57 0.55 0.54 0.53 0.53 0.60 0.60 0.57 0.58 0.56 0.56 0.59 0.56 0.54 0.54 0.54 0.54 0.55 0.44 0.37 0.31 0.27 0.23 0.27 0.28 0.27 0.32 0.32 0.35 0.32 0.30 0.26 0.26 0.23 0.25 0.21 0.23 0.21 0.22 0.21 0.20 0.26 0.27 0.25 0.25 0.18 0.16 0.13 0.12 0.11 0.12 0.11 0.11 0.13 0.11 0.15 0.17 0.18 0.18 0.17 0.21 0.56 0.77 0.70 0.53 0.51 0.50 0.56 0.68 0.68 0.79 0.88 0.99 1.07 1.14
0.77 0.76 0.74 0.72 0.70 0.69 0.67 0.66 0.65 0.63 0.62 0.61 0.59 0.58 0.57 0.56 0.54 0.53 0.57 0.59 0.56 0.55 0.57 0.57 0.56 0.59 0.56 0.54 0.52 0.53 0.48 0.42 0.31 0.29 0.25 0.31 0.34 0.32 0.30 0.31 0.35 0.37 0.34 0.23 0.21 0.22 0.23 0.22 0.22 0.21 0.17 0.16 0.24 0.18 0.25 0.21 0.26 0.18 0.18 0.17 0.13 0.14 0.14 0.15 0.14 0.14 0.13 0.13 0.17 0.18 0.20 0.19 0.18 0.22 0.33 0.49 0.58 0.54 0.44 0.48 0.56 0.58 0.69 0.80 0.89 0.93 0.99 1.07
0.79 0.77 0.77 0.76 0.74 0.72 0.71 0.69 0.67 0.65 0.64 0.63 0.61 0.59 0.58 0.57 0.56 0.54 0.54 0.54 0.56 0.56 0.58 0.56 0.58 0.58 0.57 0.56 0.51 0.52 0.44 0.31 0.30 0.23 0.27 0.48 0.44 0.42 0.41 0.39 0.39 0.38 0.30 0.23 0.23 0.22 0.23 0.24 0.24 0.20 0.16 0.15 0.20 0.17 0.21 0.19 0.23 0.21 0.16 0.14 0.15 0.18 0.18 0.16 0.16 0.15 0.14 0.16 0.17 0.19 0.20 0.20 0.21 0.22 0.31 0.43 0.56 0.61 0.41 0.38 0.48 0.53 0.55 0.65 0.78 0.93 1.00 1.03
0.79 0.79 0.79 0.78 0.77 0.76 0.74 0.72 0.70 0.68 0.66 0.65 0.63 0.61 0.60 0.59 0.57 0.57 0.56 0.56 0.56 0.56 0.58 0.55 0.55 0.58 0.57 0.54 0.55 0.49 0.36 0.29 0.20 0.25 0.41 0.51 0.43 0.44 0.43 0.43 0.43 0.43 0.37 0.27 0.30 0.28 0.29 0.29 0.26 0.21 0.16 0.14 0.17 0.20 0.17 0.21 0.18 0.21 0.16 0.13 0.16 0.19 0.18 0.19 0.18 0.17 0.17 0.19 0.19 0.19 0.21 0.20 0.21 0.25 0.34 0.45 0.48 0.54 0.53 0.49 0.42 0.43 0.51 0.64 0.77 0.91 0.98 0.99
0.81 0.81 0.81 0.80 0.79 0.79 0.77 0.76 0.73 0.70 0.68 0.68 0.66 0.64 0.62 0.61 0.58 0.58 0.56 0.53 0.54 0.55 0.57 0.54 0.54 0.57 0.59 0.57 0.50 0.47 0.35 0.16 0.17 0.34 0.43 0.48 0.41 0.43 0.46 0.47 0.46 0.44 0.35 0.29 0.29 0.30 0.28 0.26 0.25 0.21 0.16 0.13 0.17 0.18 0.17 0.20 0.21 0.21 0.16 0.18 0.20 0.21 0.17 0.20 0.22 0.22 0.19 0.21 0.21 0.21 0.20 0.20 0.23 0.32 0.36 0.40 0.39 0.42 0.53 0.60 0.70 0.74 0.74 0.66 0.73 0.86 0.96 0.97
0.77 0.79 0.80 0.80 0.79 0.79 0.79 0.79 0.78 0.76 0.72 0.69 0.68 0.67 0.64 0.62 0.61 0.59 0.56 0.53 0.53 0.53 0.55 0.53 0.53 0.56 0.60 0.57 0.50 0.41 0.28 0.10 0.28 0.36 0.45 0.43 0.38 0.41 0.47 0.50 0.49 0.42 0.34 0.28 0.24 0.26 0.25 0.25 0.23 0.18 0.15 0.14 0.14 0.13 0.16 0.19 0.22 0.14 0.18 0.19 0.22 0.23 0.19 0.23 0.23 0.23 0.22 0.22 0.21 0.20 0.22 0.23 0.22 0.22 0.30 0.46 0.47 0.58 0.77 0.84 0.85 0.87 0.89 0.95 0.91 0.88 0.90 0.93
0.77 0.78 0.79 0.80 0.81 0.81 0.80 0.79 0.79 0.79 0.77 0.75 0.71 0.68 0.67 0.65 0.61 0.60 0.57 0.54 0.53 0.53 0.53 0.55 0.53 0.56 0.59 0.57 0.47 0.37 0.24 0.21 0.35 0.47 0.47 0.42 0.39 0.38 0.48 0.57 0.56 0.40 0.30 0.23 0.22 0.22 0.24 0.23 0.20 0.17 0.15 0.14 0.15 0.15 0.17 0.18 0.21 0.17 0.15 0.19 0.20 0.23 0.21 0.23 0.23 0.25 0.23 0.23 0.23 0.25 0.25 0.22 0.22 0.20 0.44 0.48 0.59 0.71 0.83 0.86 0.93 0.95 0.98 0.99 0.95 0.95 0.96 0.96
0.75 0.75 0.75 0.77 0.78 0.80 0.81 0.80 0.79 0.79 0.79 0.77 0.75 0.71 0.69 0.67 0.64 0.61 0.59 0.55 0.53 0.54 0.53 0.54 0.57 0.57 0.59 0.48 0.35 0.26 0.25 0.19 0.27 0.44 0.47 0.44 0.39 0.36 0.46 0.57 0.52 0.39 0.27 0.20 0.20 0.21 0.24 0.22 0.19 0.19 0.16 0.13 0.14 0.15 0.19 0.18 0.20 0.16 0.15 0.19 0.22 0.23 0.23 0.24 0.24 0.24 0.24 0.24 0.26 0.26 0.23 0.22 0.23 0.22 0.41 0.44 0.61 0.76 0.82 0.92 0.93 0.94 0.96 0.97 0.99 1.01 1.01 1.00
0.74 0.75 0.76 0.76 0.76 0.77 0.80 0.81 0.81 0.80 0.80 0.80 0.78 0.75 0.71 0.69 0.66 0.64 0.61 0.57 0.55 0.55 0.55 0.55 0.56 0.60 0.61 0.48 0.34 0.24 0.18 0.25 0.30 0.38 0.44 0.44 0.41 0.37 0.37 0.44 0.50 0.37 0.26 0.22 0.21 0.23 0.23 0.21 0.21 0.19 0.14 0.14 0.18 0.15 0.18 0.17 0.14 0.17 0.17 0.20 0.22 0.23 0.25 0.25 0.24 0.24 0.23 0.24 0.26 0.24 0.23 0.24 0.31 0.47 0.47 0.53 0.66 0.84 0.91 0.91 0.94 0.94 0.92 0.92 0.97 1.06 1.07 1.01
0.73 0.73 0.73 0.74 0.75 0.76 0.76 0.78 0.81 0.81 0.80 0.78 0.78 0.77 0.74 0.71 0.68 0.67 0.63 0.60 0.58 0.55 0.55 0.59 0.57 0.58 0.52 0.41 0.34 0.18 0.23 0.32 0.36 0.35 0.39 0.42 0.40 0.37 0.34 0.37 0.47 0.38 0.27 0.22 0.21 0.23 0.22 0.22 0.22 0.22 0.21 0.17 0.19 0.16 0.17 0.17 0.15 0.19 0.18 0.20 0.21 0.23 0.25 0.26 0.24 0.24 0.24 0.23 0.24 0.22 0.22 0.26 0.44 0.40 0.33 0.65 0.81 0.94 0.91 0.88 0.93 0.93 0.90 0.95 1.01 1.10 1.13 1.05
0.69 0.71 0.71 0.72 0.73 0.75 0.76 0.76 0.77 0.78 0.79 0.78 0.78 0.78 0.75 0.73 0.70 0.68 0.65 0.64 0.59 0.56 0.54 0.56 0.61 0.56 0.44 0.44 0.26 0.18 0.35 0.33 0.42 0.38 0.36 0.40 0.38 0.34 0.33 0.33 0.38 0.37 0.30 0.24 0.21 0.24 0.26 0.25 0.26 0.26 0.21 0.18 0.18 0.17 0.18 0.17 0.19 0.19 0.19 0.19 0.20 0.22 0.24 0.25 0.24 0.23 0.23 0.21 0.24 0.24 0.23 0.29 0.44 0.37 0.32 0.53 0.81 0.99 0.88 0.84 0.89 0.93 0.94 0.98 1.06 1.13 1.12 1.10
0.66 0.68 0.68 0.69 0.70 0.71 0.72 0.73 0.75 0.76 0.78 0.79 0.78 0.78 0.76 0.73 0.71 0.69 0.68 0.66 0.60 0.58 0.55 0.55 0.59 0.58 0.48 0.39 0.30 0.23 0.39 0.34 0.37 0.39 0.38 0.37 0.35 0.35 0.36 0.36 0.35 0.34 0.30 0.23 0.22 0.25 0.29 0.26 0.26 0.25 0.17 0.23 0.16 0.18 0.19 0.22 0.18 0.16 0.17 0.14 0.16 0.18 0.19 0.22 0.21 0.22 0.23 0.21 0.24 0.25 0.22 0.21 0.30 0.27 0.37 0.59 0.86 0.97 0.90 0.84 0.87 0.93 0.97 1.02 1.09 1.13 1.10 1.12
0.62 0.63 0.65 0.66 0.67 0.68 0.70 0.72 0.73 0.74 0.76 0.77 0.78 0.78 0.77 0.75 0.72 0.70 0.68 0.65 0.62 0.60 0.57 0.56 0.57 0.56 0.44 0.28 0.29 0.38 0.42 0.40 0.39 0.37 0.36 0.37 0.38 0.37 0.36 0.37 0.35 0.34 0.31 0.26 0.23 0.27 0.29 0.27 0.25 0.23 0.23 0.22 0.18 0.15 0.19 0.21 0.18 0.17 0.15 0.15 0.15 0.15 0.15 0.20 0.21 0.21 0.21 0.22 0.24 0.24 0.16 0.18 0.21 0.29 0.42 0.63 0.83 0.93 0.90 0.85 0.88 0.93 0.98 1.04 1.09 1.07 1.10 1.16
0.57 0.59 0.61 0.63 0.65 0.66 0.67 0.68 0.69 0.71 0.73 0.75 0.76 0.77 0.77 0.76 0.74 0.70 0.68 0.65 0.63 0.60 0.59 0.55 0.56 0.49 0.40 0.28 0.35 0.38 0.41 0.40 0.38 0.33 0.32 0.36 0.33 0.31 0.32 0.34 0.36 0.34 0.34 0.29 0.28 0.30 0.31 0.29 0.26 0.24 0.26 0.22 0.19 0.22 0.18 0.17 0.18 0.14 0.15 0.15 0.13 0.13 0.13 0.18 0.19 0.21 0.20 0.23 0.24 0.23 0.16 0.18 0.21 0.27 0.46 0.65 0.83 0.79 0.79 0.87 0.90 0.92 0.96 1.01 1.07 1.07 1.10 1.16
0.53 0.53 0.55 0.57 0.61 0.62 0.64 0.66 0.67 0.70 0.74 0.75 0.76 0.78 0.77 0.75 0.74 0.72 0.70 0.66 0.63 0.61 0.58 0.57 0.55 0.43 0.31 0.30 0.40 0.38 0.40 0.42 0.32 0.28 0.33 0.30 0.30 0.28 0.27 0.30 0.33 0.33 0.31 0.31 0.30 0.31 0.34 0.33 0.28 0.23 0.21 0.25 0.24 0.19 0.16 0.16 0.15 0.15 0.13 0.11 0.13 0.12 0.14 0.17 0.19 0.20 0.18 0.21 0.23 0.21 0.17 0.18 0.23 0.32 0.52 0.71 0.82 0.82 0.80 0.89 0.91 0.94 0.96 1.00 1.05 1.08 1.11 1.14
0.50 0.50 0.50 0.52 0.55 0.59 0.60 0.62 0.64 0.67 0.70 0.72 0.73 0.76 0.76 0.75 0.74 0.72 0.69 0.65 0.63 0.61 0.61 0.48 0.45 0.41 0.31 0.24 0.28 0.41 0.36 0.28 0.27 0.34 0.34 0.34 0.32 0.26 0.28 0.29 0.32 0.33 0.30 0.28 0.32 0.33 0.34 0.33 0.25 0.23 0.21 0.23 0.20 0.18 0.16 0.15 0.14 0.15 0.12 0.12 0.11 0.13 0.14 0.14 0.17 0.20 0.21 0.20 0.21 0.20 0.16 0.20 0.23 0.39 0.59 0.78 0.82 0.85 0.89 0.94 0.94 0.96 0.97 1.02 1.07 1.12 1.13 1.13
0.45 0.46 0.47 0.47 0.50 0.53 0.57 0.58 0.60 0.63 0.66 0.69 0.72 0.73 0.74 0.75 0.73 0.70 0.64 0.60 0.59 0.62 0.53 0.39 0.48 0.49 0.24 0.39 0.45 0.29 0.25 0.29 0.35 0.32 0.33 0.36 0.34 0.30 0.27 0.28 0.28 0.30 0.29 0.29 0.29 0.30 0.31 0.28 0.27 0.23 0.22 0.19 0.20 0.19 0.15 0.13 0.12 0.13 0.14 0.12 0.13 0.12 0.13 0.12 0.16 0.18 0.20 0.19 0.17 0.19 0.18 0.21 0.31 0.44 0.60 0.72 0.73 0.76 0.83 0.92 0.99 1.02 1.01 1.05 1.07 1.11 1.11 1.12
0.47 0.46 0.45 0.45 0.45 0.47 0.53 0.56 0.58 0.59 0.63 0.67 0.70 0.72 0.70 0.72 0.73 0.65 0.59 0.58 0.60 0.56 0.52 0.53 0.50 0.40 0.29 0.36 0.25 0.28 0.35 0.30 0.30 0.31 0.32 0.35 0.35 0.32 0.28 0.26 0.27 0.29 0.28 0.25 0.28 0.24 0.27 0.23 0.23 0.17 0.18 0.18 0.19 0.18 0.14 0.11 0.12 0.12 0.12 0.12 0.12 0.14 0.14 0.13 0.13 0.16 0.18 0.18 0.17 0.17 0.18 0.21 0.29 0.52 0.58 0.63 0.75 0.68 0.70 0.85 0.95 1.00 1.01 1.03 1.04 1.06 1.08 1.10
0.49 0.47 0.46 0.45 0.44 0.44 0.48 0.53 0.57 0.59 0.60 0.64 0.69 0.71 0.70 0.68 0.66 0.63 0.52 0.49 0.40 0.34 0.26 0.30 0.32 0.18 0.15 0.25 0.31 0.29 0.31 0.33 0.34 0.32 0.27 0.30 0.33 0.33 0.30 0.29 0.28 0.27 0.23 0.21 0.22 0.24 0.24 0.21 0.20 0.17 0.14 0.15 0.16 0.17 0.17 0.16 0.16 0.14 0.14 0.13 0.13 0.12 0.13 0.14 0.15 0.17 0.18 0.17 0.16 0.16 0.15 0.18 0.29 0.48 0.59 0.66 0.71 0.69 0.69 0.81 0.91 0.93 0.95 0.97 0.98 1.01 1.06 1.11
0.52 0.50 0.46 0.44 0.44 0.44 0.45 0.50 0.54 0.57 0.60 0.61 0.61 0.57 0.53 0.44 0.41 0.39 0.48 0.46 0.34 0.30 0.28 0.33 0.34 0.29 0.27 0.28 0.27 0.32 0.35 0.35 0.27 0.29 0.31 0.34 0.29 0.28 0.27 0.27 0.25 0.26 0.24 0.18 0.21 0.22 0.23 0.17 0.14 0.13 0.14 0.15 0.16 0.19 0.20 0.19 0.19 0.17 0.16 0.15 0.14 0.13 0.14 0.16 0.17 0.17 0.19 0.17 0.16 0.17 0.17 0.19 0.29 0.42 0.53 0.60 0.69 0.73 0.78 0.79 0.79 0.78 0.77 0.79 0.87 1.01 1.08 1.05
0.51 0.51 0.47 0.44 0.44 0.44 0.45 0.48 0.51 0.54 0.57 0.56 0.53 0.46 0.33 0.36 0.30 0.27 0.38 0.41 0.42 0.41 0.36 0.35 0.35 0.29 0.25 0.29 0.31 0.30 0.24 0.24 0.29 0.29 0.30 0.41 0.30 0.24 0.23 0.24 0.22 0.21 0.22 0.23 0.21 0.27 0.23 0.16 0.15 0.15 0.15 0.15 0.16 0.19 0.21 0.21 0.19 0.18 0.16 0.15 0.14 0.14 0.13 0.16 0.16 0.17 0.19 0.16 0.16 0.17 0.17 0.21 0.29 0.44 0.52 0.59 0.61 0.62 0.70 0.72 0.74 0.76 0.75 0.78 0.85 0.99 1.00 1.07
0.48 0.49 0.48 0.44 0.44 0.44 0.45 0.48 0.50 0.53 0.57 0.56 0.49 0.42 0.45 0.47 0.50 0.53 0.46 0.31 0.39 0.41 0.40 0.37 0.40 0.35 0.35 0.31 0.35 0.35 0.32 0.24 0.21 0.24 0.30 0.33 0.27 0.19 0.22 0.22 0.20 0.19 0.24 0.25 0.24 0.21 0.18 0.15 0.18 0.17 0.17 0.17 0.17 0.18 0.20 0.20 0.19 0.18 0.17 0.16 0.15 0.15 0.16 0.17 0.18 0.18 0.18 0.16 0.15 0.17 0.16 0.19 0.33 0.43 0.57 0.56 0.52 0.58 0.69 0.70 0.67 0.68 0.67 0.74 0.87 0.92 0.97 1.06
0.47 0.48 0.48 0.46 0.44 0.44 0.45 0.47 0.48 0.51 0.51 0.48 0.43 0.46 0.46 0.57 0.59 0.63 0.56 0.42 0.34 0.38 0.38 0.37 0.33 0.32 0.28 0.33 0.36 0.37 0.25 0.21 0.18 0.22 0.26 0.29 0.25 0.21 0.22 0.20 0.20 0.21 0.23 0.24 0.19 0.18 0.15 0.18 0.21 0.21 0.19 0.17 0.16 0.17 0.18 0.20 0.20 0.17 0.16 0.15 0.14 0.16 0.15 0.14 0.17 0.18 0.18 0.17 0.15 0.17 0.16 0.17 0.26 0.42 0.54 0.63 0.56 0.58 0.67 0.76 0.84 0.85 0.75 0.74 0.82 0.84 0.92 1.06
0.45 0.46 0.48 0.46 0.45 0.45 0.47 0.47 0.49 0.45 0.45 0.46 0.45 0.45 0.58 0.61 0.59 0.59 0.48 0.32 0.28 0.30 0.33 0.32 0.34 0.32 0.27 0.25 0.33 0.32 0.25 0.23 0.23 0.20 0.32 0.29 0.22 0.24 0.21 0.21 0.20 0.21 0.21 0.23 0.23 0.19 0.18 0.21 0.24 0.22 0.20 0.17 0.15 0.16 0.16 0.17 0.17 0.19 0.17 0.16 0.16 0.16 0.16 0.16 0.16 0.18 0.19 0.18 0.18 0.16 0.15 0.16 0.18 0.24 0.38 0.52 0.67 0.72 0.79 0.78 0.80 0.80 0.84 0.86 0.88 0.88 0.96 0.96
0.45 0.47 0.49 0.47 0.46 0.49 0.48 0.46 0.37 0.37 0.46 0.46 0.44 0.54 0.58 0.58 0.58 0.55 0.42 0.35 0.32 0.27 0.41 0.37 0.39 0.33 0.33 0.44 0.40 0.29 0.28 0.27 0.26 0.27 0.30 0.29 0.24 0.21 0.20 0.24 0.22 0.19 0.21 0.25 0.25 0.22 0.21 0.24 0.25 0.21 0.20 0.18 0.16 0.15 0.16 0.16 0.16 0.17 0.19 0.18 0.17 0.18 0.17 0.17 0.18 0.17 0.16 0.15 0.17 0.15 0.12 0.12 0.16 0.17 0.24 0.39 0.51 0.61 0.72 0.68 0.62 0.67 0.73 0.76 0.77 0.82 0.89 0.98
0.43 0.46 0.49 0.48 0.49 0.50 0.49 0.34 0.35 0.44 0.42 0.37 0.44 0.53 0.57 0.56 0.57 0.60 0.44 0.26 0.19 0.23 0.33 0.22 0.42 0.28 0.44 0.31 0.34 0.30 0.34 0.23 0.26 0.26 0.30 0.30 0.31 0.22 0.22 0.21 0.22 0.18 0.22 0.24 0.24 0.24 0.24 0.27 0.24 0.20 0.20 0.19 0.17 0.16 0.17 0.17 0.16 0.16 0.17 0.20 0.19 0.19 0.18 0.18 0.17 0.16 0.14 0.12 0.16 0.18 0.11 0.11 0.16 0.15 0.17 0.27 0.41 0.52 0.64 0.61 0.61 0.65 0.71 0.75 0.77 0.84 0.85 0.90
0.45 0.47 0.50 0.50 0.50 0.53 0.38 0.29 0.45 0.46 0.36 0.38 0.50 0.58 0.57 0.55 0.60 0.56 0.30 0.19 0.16 0.28 0.21 0.30 0.36 0.35 0.40 0.34 0.31 0.32 0.14 0.15 0.25 0.29 0.28 0.35 0.27 0.29 0.18 0.19 0.22 0.23 0.25 0.27 0.25 0.21 0.26 0.25 0.24 0.23 0.20 0.18 0.17 0.16 0.17 0.17 0.16 0.15 0.19 0.20 0.21 0.19 0.18 0.18 0.18 0.17 0.15 0.17 0.18 0.17 0.15 0.12 0.12 0.15 0.18 0.20 0.31 0.45 0.53 0.59 0.60 0.64 0.68 0.73 0.78 0.82 0.84 0.92
0.46 0.48 0.50 0.52 0.51 0.52 0.42 0.43 0.38 0.35 0.40 0.49 0.54 0.58 0.58 0.53 0.58 0.54 0.26 0.11 0.10 0.34 0.27 0.31 0.34 0.49 0.42 0.38 0.37 0.22 0.20 0.28 0.17 0.23 0.28 0.32 0.32 0.26 0.21 0.18 0.19 0.20 0.23 0.25 0.17 0.23 0.26 0.23 0.23 0.21 0.21 0.18 0.17 0.18 0.19 0.19 0.16 0.17 0.19 0.20 0.20 0.20 0.19 0.19 0.18 0.17 0.17 0.15 0.13 0.15 0.18 0.12 0.11 0.15 0.25 0.19 0.23 0.37 0.46 0.50 0.54 0.60 0.67 0.72 0.75 0.79 0.87 0.94
0.48 0.50 0.51 0.52 0.53 0.54 0.52 0.42 0.39 0.34 0.50 0.59 0.60 0.59 0.57 0.55 0.53 0.34 0.19 0.10 0.28 0.29 0.44 0.30 0.47 0.39 0.40 0.43 0.33 0.25 0.24 0.29 0.18 0.22 0.27 0.32 0.34 0.28 0.19 0.21 0.21 0.22 0.23 0.24 0.21 0.23 0.26 0.26 0.25 0.24 0.21 0.19 0.21 0.21 0.20 0.20 0.17 0.19 0.20 0.20 0.20 0.21 0.21 0.20 0.18 0.17 0.17 0.14 0.11 0.13 0.16 0.12 0.11 0.14 0.20 0.26 0.20 0.27 0.40 0.45 0.47 0.54 0.62 0.67 0.70 0.77 0.90 0.97
0.49 0.50 0.51 0.53 0.52 0.50 0.48 0.48 0.41 0.49 0.56 0.60 0.59 0.60 0.57 0.50 0.39 0.20 0.14 0.09 0.36 0.25 0.34 0.34 0.33 0.28 0.38 0.31 0.30 0.26 0.22 0.26 0.29 0.26 0.26 0.24 0.29 0.30 0.25 0.27 0.21 0.21 0.21 0.24 0.24 0.24 0.26 0.30 0.30 0.25 0.22 0.22 0.23 0.22 0.21 0.21 0.20 0.21 0.20 0.18 0.18 0.19 0.20 0.20 0.19 0.18 0.16 0.12 0.11 0.14 0.16 0.14 0.10 0.14 0.17 0.17 0.20 0.24 0.38 0.45 0.48 0.57 0.63 0.67 0.71 0.77 0.85 0.93
0.48 0.52 0.53 0.55 0.45 0.49 0.45 0.33 0.40 0.51 0.56 0.59 0.61 0.57 0.48 0.39 0.23 0.15 0.09 0.12 0.36 0.38 0.37 0.32 0.29 0.39 0.31 0.28 0.24 0.27 0.24 0.26 0.26 0.24 0.20 0.25 0.25 0.26 0.23 0.21 0.24 0.20 0.20 0.21 0.22 0.23 0.24 0.27 0.26 0.27 0.29 0.26 0.25 0.22 0.23 0.22 0.21 0.20 0.18 0.17 0.17 0.17 0.19 0.18 0.18 0.18 0.13 0.10 0.13 0.15 0.14 0.15 0.10 0.12 0.19 0.23 0.24 0.26 0.30 0.34 0.42 0.49 0.55 0.59 0.68 0.78 0.88 0.97
0.46 0.50 0.55 0.52 0.54 0.56 0.38 0.32 0.44 0.53 0.54 0.59 0.56 0.45 0.36 0.19 0.25 0.13 0.10 0.32 0.22 0.33 0.36 0.34 0.35 0.34 0.32 0.32 0.28 0.23 0.22 0.24 0.26 0.22 0.18 0.19 0.21 0.20 0.19 0.15 0.17 0.14 0.15 0.16 0.17 0.21 0.20 0.22 0.25 0.26 0.30 0.27 0.23 0.21 0.21 0.22 0.21 0.19 0.18 0.17 0.14 0.13 0.14 0.13 0.15 0.12 0.11 0.10 0.14 0.15 0.15 0.13 0.12 0.19 0.25 0.27 0.31 0.36 0.43 0.43 0.42 0.45 0.48 0.55 0.66 0.77 0.88 1.00
0.46 0.45 0.50 0.55 0.56 0.49 0.44 0.45 0.49 0.53 0.56 0.55 0.47 0.41 0.25 0.17 0.11 0.17 0.17 0.25 0.25 0.40 0.36 0.45 0.36 0.36 0.35 0.30 0.26 0.24 0.26 0.20 0.25 0.21 0.20 0.21 0.21 0.21 0.22 0.20 0.20 0.17 0.12 0.17 0.17 0.17 0.18 0.22 0.23 0.24 0.26 0.28 0.25 0.18 0.18 0.18 0.19 0.17 0.16 0.15 0.13 0.12 0.11 0.10 0.12 0.13 0.13 0.15 0.17 0.16 0.18 0.12 0.19 0.19 0.23 0.26 0.36 0.44 0.48 0.55 0.58 0.55 0.53 0.60 0.69 0.78 0.89 1.00
0.53 0.47 0.38 0.43 0.47 0.48 0.47 0.49 0.51 0.56 0.55 0.51 0.41 0.30 0.23 0.14 0.14 0.25 0.21 0.27 0.31 0.42 0.41 0.38 0.39 0.36 0.34 0.26 0.25 0.25 0.19 0.25 0.23 0.21 0.20 0.19 0.20 0.18 0.20 0.21 0.21 0.18 0.18 0.17 0.15 0.16 0.13 0.14 0.19 0.22 0.20 0.27 0.24 0.21 0.19 0.18 0.19 0.18 0.18 0.16 0.14 0.14 0.12 0.10 0.11 0.10 0.10 0.13 0.15 0.19 0.14 0.12 0.13 0.18 0.36 0.38 0.43 0.48 0.55 0.59 0.62 0.62 0.63 0.67 0.77 0.85 0.93 1.03
0.56 0.52 0.44 0.40 0.42 0.44 0.44 0.49 0.53 0.55 0.53 0.44 0.32 0.22 0.15 0.14 0.21 0.19 0.22 0.28 0.34 0.37 0.36 0.44 0.37 0.35 0.31 0.31 0.30 0.27 0.21 0.19 0.24 0.21 0.18 0.18 0.17 0.19 0.18 0.19 0.20 0.21 0.19 0.15 0.18 0.17 0.15 0.16 0.19 0.24 0.25 0.26 0.23 0.25 0.24 0.20 0.19 0.19 0.19 0.19 0.15 0.14 0.16 0.12 0.14 0.14 0.13 0.13 0.14 0.16 0.14 0.24 0.21 0.50 0.53 0.50 0.49 0.50 0.56 0.61 0.63 0.65 0.69 0.71 0.74 0.80 0.88 0.99
0.53 0.48 0.45 0.38 0.38 0.44 0.48 0.53 0.55 0.54 0.48 0.36 0.23 0.17 0.15 0.21 0.19 0.28 0.27 0.37 0.37 0.33 0.36 0.41 0.39 0.31 0.31 0.29 0.29 0.24 0.24 0.20 0.22 0.21 0.19 0.19 0.20 0.19 0.21 0.20 0.20 0.21 0.19 0.15 0.18 0.15 0.17 0.15 0.21 0.23 0.24 0.25 0.24 0.24 0.23 0.23 0.14 0.18 0.18 0.15 0.15 0.19 0.17 0.15 0.16 0.18 0.17 0.15 0.12 0.18 0.16 0.25 0.37 0.39 0.47 0.51 0.49 0.48 0.53 0.58 0.59 0.61 0.65 0.66 0.66 0.76 0.87 0.97
0.45 0.48 0.38 0.39 0.40 0.48 0.52 0.54 0.54 0.52 0.45 0.32 0.21 0.16 0.22 0.25 0.32 0.31 0.35 0.35 0.37 0.39 0.36 0.29 0.31 0.31 0.28 0.26 0.24 0.23 0.22 0.23 0.21 0.19 0.16 0.20 0.18 0.21 0.20 0.21 0.23 0.22 0.23 0.20 0.18 0.22 0.15 0.16 0.21 0.21 0.20 0.25 0.27 0.25 0.24 0.23 0.22 0.19 0.14 0.17 0.21 0.22 0.21 0.16 0.13 0.15 0.13 0.12 0.12 0.18 0.15 0.20 0.18 0.15 0.40 0.44 0.43 0.45 0.48 0.51 0.55 0.61 0.67 0.64 0.65 0.70 0.77 0.88
0.43 0.45 0.44 0.43 0.46 0.54 0.55 0.55 0.54 0.48 0.39 0.27 0.19 0.21 0.29 0.24 0.35 0.36 0.40 0.39 0.39 0.39 0.34 0.32 0.34 0.39 0.28 0.27 0.21 0.21 0.23 0.19 0.20 0.19 0.16 0.19 0.17 0.23 0.21 0.20 0.23 0.23 0.24 0.25 0.20 0.20 0.22 0.15 0.19 0.21 0.21 0.23 0.27 0.26 0.22 0.23 0.23 0.19 0.16 0.22 0.15 0.14 0.13 0.16 0.15 0.12 0.11 0.10 0.11 0.15 0.20 0.20 0.20 0.23 0.34 0.32 0.35 0.39 0.43 0.48 0.51 0.52 0.58 0.62 0.67 0.72 0.79 0.88
0.46 0.43 0.34 0.45 0.55 0.57 0.56 0.58 0.52 0.41 0.31 0.20 0.20 0.19 0.26 0.29 0.36 0.36 0.42 0.41 0.41 0.37 0.32 0.35 0.32 0.36 0.35 0.27 0.27 0.26 0.23 0.17 0.21 0.18 0.16 0.18 0.15 0.22 0.21 0.21 0.20 0.24 0.25 0.24 0.21 0.23 0.21 0.16 0.17 0.21 0.20 0.22 0.24 0.23 0.17 0.19 0.22 0.23 0.23 0.18 0.20 0.17 0.15 0.14 0.14 0.17 0.15 0.11 0.12 0.11 0.17 0.15 0.24 0.26 0.30 0.30 0.34 0.39 0.42 0.45 0.46 0.51 0.57 0.61 0.66 0.71 0.77 0.84
0.43 0.35 0.32 0.52 0.59 0.62 0.59 0.55 0.43 0.35 0.25 0.18 0.21 0.21 0.30 0.28 0.33 0.40 0.43 0.39 0.35 0.35 0.33 0.34 0.37 0.33 0.35 0.31 0.28 0.22 0.23 0.21 0.20 0.19 0.18 0.19 0.17 0.23 0.21 0.23 0.20 0.22 0.25 0.25 0.23 0.24 0.20 0.21 0.14 0.18 0.21 0.21 0.17 0.20 0.18 0.19 0.17 0.18 0.18 0.17 0.17 0.17 0.19 0.18 0.18 0.15 0.14 0.14 0.12 0.12 0.12 0.17 0.24 0.33 0.32 0.30 0.34 0.40 0.43 0.44 0.50 0.54 0.60 0.66 0.70 0.74 0.82 0.87
0.48 0.36 0.34 0.57 0.59 0.61 0.55 0.43 0.30 0.23 0.22 0.26 0.29 0.27 0.29 0.28 0.34 0.38 0.41 0.42 0.38 0.44 0.38 0.36 0.37 0.34 0.35 0.31 0.26 0.29 0.22 0.22 0.21 0.18 0.18 0.20 0.18 0.16 0.23 0.22 0.22 0.21 0.23 0.24 0.22 0.23 0.19 0.18 0.15 0.17 0.16 0.16 0.18 0.22 0.23 0.21 0.20 0.18 0.17 0.17 0.17 0.15 0.14 0.12 0.12 0.17 0.16 0.16 0.14 0.12 0.11 0.24 0.32 0.42 0.38 0.40 0.44 0.48 0.53 0.51 0.51 0.56 0.63 0.70 0.79 0.83 0.83 0.86
0.37 0.25 0.30 0.55 0.56 0.55 0.40 0.25 0.24 0.28 0.25 0.22 0.23 0.28 0.26 0.37 0.34 0.35 0.37 0.40 0.39 0.37 0.46 0.42 0.43 0.41 0.38 0.34 0.31 0.28 0.25 0.21 0.21 0.19 0.19 0.19 0.20 0.20 0.22 0.25 0.22 0.22 0.20 0.19 0.19 0.23 0.21 0.19 0.17 0.15 0.15 0.16 0.19 0.22 0.23 0.23 0.22 0.20 0.19 0.18 0.18 0.17 0.16 0.13 0.10 0.13 0.17 0.19 0.25 0.23 0.17 0.17 0.42 0.47 0.46 0.46 0.51 0.52 0.54 0.55 0.54 0.59 0.67 0.74 0.81 0.84 0.88 0.94
0.33 0.28 0.45 0.54 0.54 0.48 0.33 0.22 0.26 0.23 0.23 0.27 0.33 0.32 0.35 0.34 0.33 0.36 0.34 0.38 0.35 0.42 0.40 0.42 0.41 0.40 0.40 0.35 0.33 0.30 0.29 0.23 0.21 0.19 0.20 0.21 0.20 0.21 0.24 0.24 0.24 0.21 0.21 0.20 0.20 0.21 0.23 0.17 0.15 0.18 0.18 0.20 0.21 0.23 0.23 0.24 0.23 0.20 0.20 0.20 0.19 0.16 0.15 0.15 0.14 0.17 0.14 0.17 0.16 0.18 0.15 0.23 0.42 0.52 0.50 0.52 0.56 0.57 0.59 0.61 0.59 0.62 0.68 0.75 0.81 0.83 0.85 0.91
0.34 0.32 0.36 0.51 0.54 0.45 0.29 0.17 0.17 0.21 0.24 0.28 0.30 0.30 0.36 0.34 0.33 0.32 0.33 0.36 0.36 0.37 0.37 0.39 0.42 0.46 0.38 0.40 0.35 0.30 0.32 0.21 0.24 0.23 0.20 0.22 0.20 0.24 0.24 0.24 0.24 0.21 0.20 0.19 0.16 0.26 0.17 0.18 0.15 0.16 0.15 0.15 0.18 0.20 0.20 0.22 0.22 0.19 0.18 0.19 0.19 0.20 0.19 0.19 0.18 0.19 0.13 0.15 0.15 0.14 0.12 0.17 0.38 0.54 0.55 0.55 0.56 0.56 0.57 0.62 0.66 0.63 0.69 0.75 0.81 0.84 0.87 0.89
0.38 0.39 0.39 0.42 0.51 0.43 0.24 0.27 0.26 0.24 0.25 0.26 0.27 0.26 0.29 0.33 0.38 0.38 0.38 0.37 0.43 0.43 0.42 0.40 0.43 0.45 0.41 0.40 0.34 0.34 0.33 0.31 0.23 0.27 0.27 0.24 0.24 0.26 0.24 0.25 0.25 0.22 0.21 0.21 0.20 0.25 0.18 0.18 0.16 0.14 0.11 0.10 0.10 0.11 0.13 0.15 0.16 0.19 0.20 0.19 0.19 0.19 0.18 0.17 0.13 0.15 0.11 0.15 0.15 0.13 0.13 0.23 0.42 0.49 0.52 0.54 0.55 0.55 0.60 0.63 0.68 0.72 0.72 0.74 0.79 0.85 0.86 0.88
0.34 0.24 0.32 0.34 0.40 0.37 0.33 0.38 0.32 0.30 0.27 0.27 0.25 0.29 0.35 0.32 0.40 0.44 0.44 0.42 0.47 0.46 0.47 0.45 0.47 0.47 0.40 0.37 0.32 0.30 0.30 0.33 0.28 0.25 0.27 0.23 0.30 0.26 0.24 0.25 0.24 0.24 0.23 0.23 0.25 0.25 0.18 0.20 0.18 0.18 0.16 0.13 0.14 0.17 0.21 0.21 0.20 0.18 0.19 0.19 0.18 0.19 0.20 0.18 0.17 0.14 0.12 0.15 0.14 0.15 0.16 0.20 0.27 0.37 0.42 0.48 0.52 0.51 0.54 0.60 0.63 0.67 0.72 0.78 0.83 0.85 0.89 0.91
0.42 0.30 0.30 0.25 0.34 0.34 0.31 0.33 0.30 0.32 0.27 0.34 0.27 0.33 0.31 0.34 0.37 0.38 0.49 0.38 0.47 0.46 0.45 0.44 0.42 0.38 0.37 0.35 0.31 0.28 0.30 0.29 0.32 0.30 0.28 0.27 0.32 0.30 0.29 0.24 0.24 0.25 0.26 0.26 0.27 0.24 0.19 0.17 0.18 0.19 0.20 0.20 0.18 0.18 0.21 0.21 0.18 0.18 0.18 0.19 0.20 0.19 0.20 0.19 0.15 0.13 0.18 0.15 0.12 0.18 0.21 0.18 0.22 0.32 0.40 0.44 0.50 0.54 0.58 0.61 0.66 0.69 0.72 0.76 0.80 0.85 0.89 0.92
0.32 0.36 0.39 0.39 0.29 0.24 0.27 0.27 0.32 0.29 0.33 0.35 0.32 0.37 0.33 0.33 0.34 0.33 0.42 0.47 0.49 0.50 0.41 0.43 0.45 0.44 0.39 0.34 0.34 0.29 0.28 0.29 0.30 0.27 0.32 0.32 0.30 0.30 0.26 0.29 0.23 0.26 0.27 0.26 0.27 0.23 0.20 0.16 0.19 0.20 0.20 0.21 0.22 0.23 0.24 0.22 0.21 0.20 0.18 0.19 0.19 0.20 0.19 0.17 0.17 0.18 0.17 0.14 0.13 0.18 0.23 0.20 0.24 0.29 0.38 0.46 0.51 0.53 0.58 0.63 0.69 0.73 0.76 0.79 0.80 0.81 0.81 0.83
0.45 0.42 0.41 0.47 0.32 0.34 0.33 0.34 0.36 0.35 0.34 0.36 0.34 0.36 0.33 0.33 0.33 0.38 0.39 0.41 0.44 0.43 0.47 0.36 0.40 0.44 0.44 0.41 0.37 0.32 0.32 0.25 0.25 0.33 0.32 0.31 0.29 0.29 0.25 0.27 0.30 0.29 0.27 0.25 0.25 0.25 0.20 0.17 0.19 0.21 0.21 0.25 0.27 0.29 0.31 0.25 0.22 0.21 0.21 0.19 0.20 0.20 0.19 0.19 0.19 0.20 0.18 0.16 0.17 0.18 0.21 0.21 0.28 0.33 0.40 0.48 0.57 0.61 0.65 0.70 0.72 0.73 0.75 0.77 0.77 0.77 0.78 0.81
0.40 0.39 0.37 0.45 0.43 0.40 0.40 0.39 0.37 0.35 0.32 0.38 0.32 0.35 0.36 0.35 0.34 0.38 0.43 0.42 0.36 0.40 0.49 0.41 0.41 0.43 0.43 0.42 0.40 0.35 0.36 0.36 0.35 0.30 0.37 0.36 0.32 0.35 0.30 0.29 0.29 0.30 0.28 0.24 0.24 0.26 0.20 0.18 0.20 0.22 0.21 0.23 0.27 0.29 0.29 0.29 0.23 0.20 0.22 0.23 0.21 0.21 0.20 0.20 0.20 0.21 0.21 0.20 0.21 0.21 0.22 0.22 0.35 0.45 0.47 0.53 0.59 0.65 0.68 0.66 0.68 0.72 0.74 0.75 0.75 0.75 0.77 0.80
0.52 0.54 0.51 0.41 0.36 0.39 0.43 0.41 0.38 0.35 0.32 0.34 0.32 0.34 0.36 0.36 0.35 0.42 0.40 0.45 0.41 0.38 0.43 0.40 0.45 0.43 0.43 0.41 0.40 0.39 0.43 0.43 0.42 0.41 0.43 0.40 0.32 0.42 0.35 0.33 0.38 0.26 0.26 0.24 0.24 0.26 0.21 0.22 0.24 0.22 0.19 0.21 0.28 0.28 0.27 0.30 0.28 0.23 0.22 0.22 0.22 0.21 0.19 0.20 0.19 0.22 0.19 0.19 0.23 0.25 0.23 0.23 0.40 0.50 0.52 0.54 0.56 0.57 0.58 0.64 0.67 0.71 0.75 0.76 0.75 0.77 0.79 0.81
0.58 0.60 0.57 0.47 0.35 0.40 0.38 0.41 0.40 0.37 0.31 0.37 0.37 0.36 0.36 0.36 0.40 0.41 0.34 0.42 0.48 0.50 0.49 0.47 0.47 0.43 0.39 0.37 0.37 0.41 0.46 0.48 0.48 0.51 0.49 0.48 0.50 0.49 0.48 0.47 0.43 0.33 0.25 0.24 0.26 0.23 0.21 0.23 0.22 0.21 0.19 0.21 0.29 0.29 0.28 0.30 0.27 0.21 0.21 0.23 0.23 0.23 0.25 0.24 0.26 0.25 0.24 0.25 0.22 0.19 0.20 0.27 0.39 0.47 0.45 0.48 0.52 0.55 0.59 0.62 0.65 0.70 0.74 0.76 0.77 0.79 0.82 0.83
Wind_Speed
26 26 26 26 26 26 26 26 26 26 26 26 26 26 26 26 27 26 27 27 27 27 27 28 28 28 28 29 29 30 30 31 31 32 32 32 32 33 33 32 30 30 30 28 26 26 24 23 23 23 23 22 22 22 22 22 23 24 24 24 24 23 21 19 19 18 16 16 16 16 14 14 14 13 13 12 11 12 14 14 14 16 14 14 15 16 18 18
28 27 27 27 27 26 26 27 27 27 27 27 27 27 27 27 27 27 27 27 27 27 27 27 27 28 28 28 29 29 29 30 31 32 32 31 32 33 34 34 33 31 30 28 27 27 25 24 23 23 22 22 21 21 22 21 22 23 23 24 24 21 19 19 19 18 17 17 16 17 15 14 14 13 13 13 11 12 14 14 14 14 13 14 15 16 18 18
29 28 28 28 28 27 27 27 27 27 27 28 28 28 27 27 27 27 27 27 27 27 27 27 27 27 28 28 28 28 28 29 30 30 30 29 30 32 33 34 34 33 31 29 27 27 26 25 24 23 22 22 21 21 22 21 22 21 21 24 23 19 19 19 19 18 19 19 18 17 15 14 15 13 13 13 12 13 15 15 15 15 15 15 16 18 18 18
30 30 29 29 29 29 28 28 28 28 28 28 28 28 28 28 28 27 27 27 27 27 27 27 27 27 27 28 28 27 27 28 28 27 27 27 27 29 31 33 33 33 32 30 28 27 26 25 24 23 23 22 21 21 22 22 21 20 21 21 19 19 20 20 20 20 20 20 20 18 16 15 14 13 13 13 13 13 15 16 15 15 17 17 18 20 19 19
31 31 31 31 30 30 30 29 29 29 29 28 28 28 28 28 28 28 28 27 27 27 27 27 27 27 27 27 27 26 26 26 26 26 26 25 26 27 29 31 33 33 32 31 29 27 26 25 25 23 23 21 21 21 22 22 21 20 21 19 17 18 19 19 20 20 20 20 20 19 17 16 15 14 14 14 15 13 14 16 15 14 17 18 19 20 19 19
31 31 32 32 32 31 31 30 30 29 29 29 29 29 29 29 28 28 28 28 27 27 27 27 27 26 26 26 27 26 27 26 24 24 25 24 24 25 27 29 32 33 32 31 30 28 26 26 25 24 23 22 22 22 21 22 22 21 20 19 19 19 18 18 20 20 20 20 21 20 18 16 16 15 15 16 17 14 13 16 16 15 16 17 18 19 19 19
31 31 32 32 32 32 32 32 31 31 30 30 30 29 29 29 29 29 29 28 28 27 27 27 27 27 26 26 26 26 27 28 26 25 24 23 23 23 24 26 30 32 32 32 30 29 28 27 26 24 23 22 23 22 21 22 22 22 20 18 20 20 19 19 20 20 21 21 22 21 19 18 18 16 15 17 17 16 14 15 16 16 16 17 18 19 19 20
31 31 31 32 32 33 33 33 32 32 31 30 30 30 30 29 29 29 29 29 28 28 27 27 27 26 26 25 25 26 27 29 29 27 25 24 23 23 23 24 28 31 32 33 32 30 28 28 27 25 24 23 22 22 21 21 22 23 20 18 19 19 20 20 19 20 21 22 22 21 21 20 18 17 17 17 16 16 15 15 16 17 17 18 19 19 19 19
32 32 32 32 32 32 33 33 33 33 32 31 31 30 30 30 30 30 30 30 29 28 28 27 27 26 26 26 25 26 26 27 29 29 27 26 24 23 23 24 27 30 31 32 32 31 29 29 28 25 24 23 23 23 23 22 22 22 21 18 19 19 20 20 20 20 20 21 21 21 21 20 17 17 17 17 16 16 16 16 16 17 18 18 18 19 19 19
32 32 32 32 32 32 33 33 33 33 33 33 32 31 31 30 30 30 30 30 29 29 28 28 27 27 27 26 25 25 24 25 27 29 29 28 27 24 24 24 26 29 30 31 31 31 29 28 28 26 24 24 24 23 23 23 20 20 20 20 21 21 20 20 20 20 19 19 21 22 21 19 17 17 17 18 17 17 17 17 17 17 18 18 18 19 18 18
32 32 33 33 33 33 33 33 33 33 33 33 33 32 31 31 31 30 30 30 30 30 29 29 28 28 27 27 27 25 23 24 25 27 28 29 28 26 26 25 26 28 30 30 31 31 29 28 28 26 24 24 24 23 23 23 20 19 19 19 20 20 20 21 21 20 19 19 20 22 21 19 19 18 17 17 18 19 18 18 18 18 18 18 18 18 17 17
33 33 33 33 33 33 33 33 33 33 33 33 33 32 32 31 31 31 31 31 31 30 30 29 29 28 29 30 30 27 26 26 27 28 28 29 29 28 27 27 27 29 29 30 31 31 29 28 28 27 25 24 24 23 23 23 20 19 19 18 18 18 21 22 21 20 20 19 19 21 20 20 20 19 17 17 18 19 19 19 18 18 18 18 18 18 17 17
34 34 34 34 34 34 34 34 33 33 33 33 33 33 32 32 32 32 32 31 31 31 30 30 30 29 30 30 29 29 30 29 29 30 29 29 29 29 28 27 27 29 30 30 30 30 30 28 28 27 25 24 24 22 22 21 20 19 19 18 18 18 20 21 20 20 20 19 19 20 19 20 21 19 18 18 19 19 19 19 19 18 18 18 18 18 17 17
35 35 35 35 35 34 34 34 34 34 33 33 33 33 33 32 32 32 32 32 32 31 31 30 30 30 31 30 27 30 32 30 30 30 30 29 29 29 29 28 27 28 29 29 30 30 30 28 27 27 26 25 24 23 21 20 21 20 19 19 18 18 18 19 19 20 21 19 20 21 19 19 19 19 19 19 19 20 20 20 19 19 19 18 18 18 17 17
36 36 36 36 36 35 35 35 34 34 34 33 33 33 33 32 33 33 33 33 33 32 31 31 31 30 31 29 28 29 29 28 29 29 29 29 29 29 28 28 28 28 29 29 29 30 30 29 28 27 26 26 24 24 22 21 21 20 20 19 19 18 17 18 19 21 21 19 21 21 19 18 18 18 19 19 19 20 20 20 20 20 20 20 19 18 17 17
37 37 37 37 36 36 35 35 35 34 34 34 33 33 33 33 33 33 33 34 34 33 31 30 30 30 29 26 25 26 27 27 27 27 27 28 29 28 27 28 27 28 29 29 29 29 30 29 28 27 26 26 26 25 23 22 22 21 21 19 18 19 17 17 18 20 19 18 21 21 19 18 18 19 19 19 19 19 19 20 20 20 21 20 19 18 18 18
38 38 38 37 37 37 36 36 35 35 35 34 34 33 33 33 33 33 33 32 32 31 30 30 29 29 29 26 24 25 26 26 26 25 26 26 28 29 28 28 27 28 28 29 29 29 29 29 28 28 27 26 26 26 25 25 24 22 22 19 17 19 18 17 17 18 18 19 20 21 19 18 17 19 20 19 20 20 19 19 20 20 20 20 20 19 18 18
38 38 38 38 38 38 37 37 36 36 35 34 34 33 33 33 33 32 30 29 28 28 29 29 28 28 27 26 26 25 24 25 26 25 26 26 28 29 29 28 27 28 29 28 29 29 29 29 28 28 28 28 28 29 27 25 24 23 23 21 17 17 18 18 17 16 18 19 20 20 20 19 17 19 21 21 21 21 20 19 19 20 20 20 20 20 19 18
38 38 38 38 38 38 38 37 37 36 35 35 34 34 33 32 31 30 29 28 27 27 27 28 29 26 24 24 24 24 24 25 26 26 26 26 27 29 30 29 28 30 30 29 30 30 30 28 29 30 30 30 30 30 27 23 23 23 22 21 19 17 18 18 16 16 18 19 20 20 20 20 19 19 22 22 21 21 21 20 20 19 20 20 20 20 19 18
38 38 38 38 38 38 38 38 37 37 36 35 34 33 32 31 30 29 28 29 29 29 29 29 30 29 26 24 23 22 23 25 25 25 25 26 27 29 29 29 29 30 31 30 30 30 30 30 31 32 31 30 29 28 26 23 23 23 21 21 20 18 18 18 16 16 17 19 19 18 18 19 20 20 21 22 21 22 22 21 21 21 21 20 21 20 18 18
39 38 38 38 37 38 38 38 37 37 36 35 33 32 31 30 30 30 29 31 32 32 32 31 32 32 29 27 23 21 22 24 25 26 26 26 27 29 30 30 30 30 30 30 29 29 31 32 32 31 29 29 28 26 25 23 22 22 22 21 20 19 18 17 17 16 16 18 17 17 18 19 20 21 21 22 21 22 24 23 22 22 22 22 22 20 18 18
39 39 38 37 37 37 37 37 37 36 35 34 33 33 32 32 31 30 30 31 32 33 34 33 33 33 31 30 28 25 24 25 26 26 27 28 29 29 30 31 31 30 30 30 29 30 32 32 31 29 28 28 27 26 26 25 22 21 21 21 21 20 18 18 18 16 15 17 16 17 18 18 19 20 21 22 22 22 24 24 23 23 23 22 22 21 19 18
39 38 37 37 36 36 36 36 36 35 35 34 34 33 32 32 31 30 30 30 31 31 33 34 34 33 32 32 30 28 27 26 27 27 27 29 29 29 30 31 31 30 31 32 32 32 31 31 30 29 28 28 27 27 27 26 24 22 22 22 21 20 20 19 18 16 15 16 16 16 18 17 18 19 20 22 22 21 21 20 19 20 21 21 20 20 19 18
39 38 37 36 36 36 35 35 34 33 34 34 35 34 33 32 30 29 28 28 29 29 31 32 32 32 31 30 28 29 29 27 27 27 27 29 29 29 30 30 30 31 32 32 32 31 30 29 29 29 29 29 28 28 29 28 27 25 23 23 21 20 20 19 18 18 17 16 16 16 17 18 19 20 20 21 21 21 19 18 18 18 19 19 18 17 17 17
39 37 36 35 35 34 33 32 31 30 31 32 33 32 32 31 29 27 27 27 27 26 26 28 29 29 29 28 27 28 28 29 29 28 27 29 30 28 29 29 30 32 32 30 30 31 29 28 29 30 29 30 29 29 30 29 27 26 25 24 22 21 20 19 18 18 18 18 17 17 18 18 18 20 21 20 22 21 19 20 21 20 19 18 17 16 17 17
38 35 33 32 31 31 30 28 27 27 27 28 28 28 29 28 27 26 26 25 25 24 24 25 25 25 26 27 27 26 25 27 30 30 28 29 30 28 28 29 29 30 31 30 29 29 28 28 29 30 30 30 29 29 29 29 27 26 26 25 23 21 20 20 19 18 19 18 18 18 19 17 17 20 21 21 23 22 20 21 22 21 20 19 18 17 17 18
36 32 30 29 28 27 26 25 24 24 24 24 24 25 25 26 25 25 24 23 23 22 22 23 24 24 24 26 28 27 23 23 27 30 30 29 29 29 29 30 29 29 29 29 28 28 29 29 29 29 30 30 30 29 28 29 27 25 25 25 24 22 21 20 19 18 18 18 18 19 20 18 18 20 20 21 23 22 21 22 22 21 21 20 19 19 19 19
33 30 27 26 25 24 23 22 22 22 22 21 22 23 22 23 23 24 23 21 20 20 20 21 23 23 23 25 29 28 22 21 25 29 31 30 29 28 28 30 30 29 30 31 29 27 28 30 29 29 29 30 30 28 27 28 26 24 25 25 24 23 22 21 20 19 18 18 20 20 20 20 19 19 18 20 24 24 23 23 22 21 22 21 20 19 19 20
31 27 25 23 22 21 20 20 19 20 20 20 20 20 19 20 22 22 21 20 19 19 19 21 22 21 21 23 28 27 23 20 23 27 30 30 29 27 27 28 29 29 30 30 28 25 26 29 29 29 28 28 27 26 28 28 25 23 24 23 22 22 21 21 21 20 19 20 23 22 21 21 19 19 20 20 23 24 23 22 21 21 22 22 20 20 20 21
29 25 21 19 18 17 17 16 16 17 18 18 17 17 18 20 20 21 21 20 19 17 18 20 21 21 21 23 25 27 25 21 21 25 28 28 28 27 26 26 27 28 28 28 28 26 24 26 27 27 27 26 25 26 28 27 24 23 23 22 21 21 20 20 20 20 20 22 23 23 23 22 20 19 21 22 21 22 22 22 21 21 22 22 21 21 21 20
28 23 19 16 15 15 14 13 13 14 15 16 15 15 18 19 19 20 20 19 17 16 17 19 20 21 21 22 23 26 26 22 22 26 27 28 28 28 27 27 27 27 27 29 29 26 24 25 26 26 25 25 24 25 26 26 26 25 24 23 22 21 20 20 20 20 22 23 21 21 23 23 22 20 19 21 21 20 22 22 22 23 23 22 22 21 21 20
26 22 17 15 14 14 13 11 10 12 13 14 13 15 18 17 18 20 18 17 17 16 16 17 19 20 21 21 21 25 26 22 23 27 27 28 28 28 28 28 29 28 28 30 30 27 26 26 25 25 26 27 26 26 25 25 27 27 25 26 24 22 22 22 22 23 23 22 19 20 22 23 24 21 19 20 18 18 20 21 22 23 23 23 23 22 21 21
25 22 17 13 13 12 11 9 10 11 11 12 13 15 18 15 15 19 18 16 15 14 15 17 17 18 21 20 20 24 24 22 23 26 27 28 28 28 27 26 28 28 26 29 29 27 26 25 26 27 27 28 28 28 28 27 29 29 28 28 26 23 23 24 24 23 23 21 19 19 20 22 22 20 20 21 19 17 18 19 21 22 23 23 23 22 22 23
24 22 16 12 11 10 9 8 10 12 10 11 14 16 18 14 12 17 18 16 14 13 14 16 16 17 20 20 19 23 24 22 24 26 27 28 28 29 28 27 27 26 25 27 28 29 27 24 28 28 26 28 29 28 27 26 27 28 26 27 26 24 23 23 24 23 22 21 20 19 20 21 20 19 19 20 20 18 17 17 19 20 21 22 22 22 23 23
23 21 16 10 8 7 6 7 11 11 9 11 14 16 17 13 10 13 16 15 13 12 13 15 16 18 19 19 18 22 23 21 24 26 27 28 28 29 29 28 27 27 28 28 26 28 27 22 25 27 24 27 29 26 25 26 26 26 25 26 27 25 22 20 20 21 20 19 20 21 20 20 19 18 18 18 19 18 17 17 18 18 20 22 22 23 23 23
22 19 14 9 5 2 4 8 10 10 10 11 14 16 16 12 9 11 13 14 12 10 11 13 16 16 17 18 18 22 23 21 23 26 25 26 27 27 28 27 26 27 27 27 25 26 26 22 23 25 23 25 27 26 27 27 26 25 26 28 26 24 21 19 18 18 20 21 21 22 21 20 19 18 18 18 18 18 18 18 19 19 20 22 22 22 21 22
20 17 13 9 5 3 6 8 9 9 9 12 14 15 14 11 9 10 12 12 11 10 10 11 13 14 16 17 18 21 22 20 23 25 24 25 25 27 28 27 26 26 26 26 25 25 25 22 22 25 24 24 24 26 27 26 25 26 28 27 24 22 21 21 19 18 20 22 21 21 21 21 21 19 18 19 19 18 18 18 19 20 20 21 21 21 21 21
18 14 10 8 5 5 6 7 8 8 9 12 14 13 13 11 9 11 12 11 10 10 9 9 10 12 14 16 17 21 22 21 23 23 24 25 23 25 29 27 27 27 25 25 24 23 25 22 21 25 26 23 23 25 27 26 25 25 26 26 24 24 24 23 20 20 20 21 20 20 21 22 23 21 19 20 20 19 19 19 19 20 20 20 20 20 21 21
16 12 8 6 3 3 4 6 7 7 10 13 13 12 13 11 9 10 11 10 9 10 9 8 9 11 13 14 17 20 20 20 23 22 23 24 21 23 28 27 27 28 26 26 24 22 23 22 21 24 24 23 24 26 28 28 26 24 24 26 25 24 24 24 21 20 20 19 19 19 20 21 22 22 21 21 21 20 20 20 19 19 19 19 18 19 20 20
15 11 7 6 2 3 5 6 7 9 11 12 12 12 12 11 10 10 10 9 8 9 9 8 8 11 12 14 16 19 19 19 22 21 21 24 21 20 26 28 27 28 27 26 25 22 22 22 21 23 23 24 26 27 28 28 28 26 26 27 27 24 22 23 22 20 19 18 18 19 19 19 19 20 21 21 20 20 20 20 19 18 19 19 18 18 18 18
14 10 7 5 3 5 6 6 8 11 12 11 11 11 11 11 9 9 9 9 8 9 9 8 9 11 11 13 16 18 18 18 20 19 19 24 22 18 24 28 27 28 26 26 26 23 22 22 21 23 25 26 25 25 26 27 28 28 27 27 27 25 23 23 23 22 20 18 17 17 18 17 16 17 18 19 20 20 20 19 18 18 19 19 18 17 17 18
13 9 6 4 5 7 6 7 10 11 11 11 10 10 11 9 8 8 9 8 8 9 9 9 10 11 12 14 16 17 18 18 19 18 17 22 22 17 21 27 27 28 27 25 25 24 22 22 21 21 24 25 22 22 24 26 27 27 26 26 26 26 26 25 23 22 21 19 16 16 16 15 15 16 17 18 19 20 19 18 18 19 19 18 17 16 16 18
14 10 8 5 6 7 7 9 11 11 11 11 10 10 10 8 7 8 8 7 7 8 9 9 10 11 12 14 15 17 17 17 18 18 16 19 19 15 19 26 27 27 27 24 24 24 21 21 21 19 20 21 21 20 22 24 25 27 28 27 27 27 27 25 21 20 22 22 19 17 16 14 13 15 17 18 19 19 19 18 18 18 18 17 16 16 16 17
15 12 10 8 8 8 9 11 12 12 12 11 10 9 9 8 8 8 8 7 7 7 9 10 10 10 11 12 15 17 17 16 16 17 16 17 17 15 19 25 26 26 26 25 25 24 21 21 22 20 19 21 22 21 23 26 27 28 28 28 27 26 24 23 22 21 23 23 22 20 18 15 12 12 16 18 18 18 18 18 18 17 17 16 16 16 16 16
14 12 12 10 10 10 11 12 12 12 12 10 9 8 7 7 8 8 7 7 7 8 9 10 9 10 10 11 14 16 16 16 16 16 16 16 15 14 18 23 25 24 24 25 25 24 20 20 22 21 20 23 23 22 24 26 27 26 27 28 28 28 26 25 23 23 23 23 24 23 19 17 14 13 15 17 18 18 17 17 18 17 17 17 16 17 17 18
13 12 12 12 12 11 11 11 11 11 11 9 8 7 6 7 7 7 7 6 7 9 10 10 9 9 10 11 13 15 16 16 15 15 15 16 15 14 16 21 23 23 23 25 26 23 20 19 21 21 20 21 21 20 20 23 26 26 27 28 29 28 27 25 24 25 23 21 22 23 20 18 18 17 16 16 17 18 17 17 18 18 18 17 17 17 18 18
13 12 12 12 11 11 11 11 10 10 9 7 7 6 6 6 6 6 7 6 7 9 10 10 10 10 10 10 12 14 15 15 15 15 14 15 15 14 15 17 20 22 23 24 26 23 20 20 21 20 18 18 19 19 19 22 26 27 27 27 28 27 27 27 26 24 22 21 21 21 20 20 21 20 18 17 17 17 18 18 19 18 18 17 18 19 19 19
14 13 12 12 12 11 11 10 9 9 7 6 6 5 5 5 5 6 7 7 8 10 10 10 10 9 9 10 11 12 14 15 14 14 14 15 15 15 15 16 17 20 22 23 24 22 20 21 21 20 18 17 17 19 20 21 23 25 26 27 28 28 29 29 27 24 23 23 20 20 21 21 20 20 20 18 17 17 18 18 18 18 18 18 19 19 19 18
15 14 13 12 11 10 8 8 8 7 6 5 5 5 6 5 5 6 7 8 8 10 11 9 9 8 8 10 12 11 13 15 14 13 14 15 14 15 16 16 16 19 22 22 22 21 20 20 20 19 18 16 16 17 19 21 22 23 25 26 27 28 29 28 26 24 24 22 19 20 22 19 18 20 20 18 17 17 17 18 18 18 19 19 19 19 19 19
15 14 12 11 9 8 8 7 7 6 5 4 4 6 6 5 5 6 7 8 8 9 10 9 7 7 8 10 11 11 12 13 13 13 14 15 14 14 15 16 16 18 21 21 21 21 20 19 19 19 18 17 16 16 17 20 22 23 23 24 25 27 28 27 25 24 24 22 20 20 21 19 18 19 19 18 18 18 18 18 19 19 19 19 19 19 19 19
13 12 11 10 8 8 8 7 6 5 5 5 5 6 6 6 6 5 6 7 8 8 8 7 6 7 8 9 10 11 12 12 12 13 14 15 14 13 14 14 15 17 20 20 20 21 20 18 18 19 19 17 16 16 16 18 20 22 23 24 25 26 26 25 24 24 24 23 21 20 19 19 19 18 17 18 19 19 19 19 19 19 19 19 19 19 19 19
11 9 9 8 7 7 7 6 5 5 5 5 5 5 5 5 5 4 4 6 7 8 8 7 6 7 7 7 9 10 10 10 11 12 14 15 14 13 13 13 14 16 18 19 19 20 20 18 18 19 18 16 15 15 16 17 19 21 23 24 25 25 24 23 23 24 24 24 23 20 18 19 19 18 17 18 19 20 21 20 20 20 20 20 20 20 19 19
Wind_Direction
288 287 286 284 281 280 278 277 276 275 275 275 274 274 274 274 273 271 271 271 269 268 267 265 264 263 262 261 261 260 259 257 254 251 247 244 242 241 240 240 239 238 238 239 238 238 238 237 236 235 234 234 236 235 233 234 233 233 236 236 237 238 238 236 232 233 235 231 230 238 242 240 246 245 237 233 230 222 217 219 215 213 219 218 215 206 199 203
286 286 285 284 282 281 279 277 276 275 275 274 274 274 274 273 273 272 271 270 269 268 267 266 264 264 262 261 261 260 259 257 254 250 246 244 242 241 240 239 238 237 236 237 237 235 234 235 234 232 232 233 235 233 231 232 231 233 236 236 237 237 237 235 232 231 232 232 236 243 241 236 242 244 237 234 226 215 213 214 210 208 210 210 206 198 196 198
285 284 284 283 283 282 280 278 276 275 275 274 273 273 273 273 273 272 271 270 269 268 268 266 264 264 262 262 261 260 258 255 252 247 244 243 242 241 240 238 236 234 234 235 235 233 232 233 230 230 231 231 232 231 230 231 231 233 234 236 236 234 235 234 232 230 231 232 236 241 238 237 240 238 236 232 221 212 212 210 207 205 204 204 201 196 195 197
284 283 282 282 281 281 281 279 277 275 274 274 273 273 272 272 272 271 271 270 269 268 267 266 265 263 262 262 260 259 257 253 247 242 241 243 243 242 240 238 235 232 231 231 232 231 230 230 228 229 229 230 231 229 230 229 230 233 232 235 234 230 232 231 229 231 232 229 230 236 239 239 238 234 232 225 218 214 212 210 211 209 202 200 198 196 197 197
285 284 282 281 280 280 280 279 278 276 275 273 273 272 272 272 271 271 270 269 268 267 267 266 264 263 263 261 259 257 252 248 242 237 239 242 242 243 241 237 233 230 228 227 228 228 228 227 226 227 228 230 229 228 230 227 228 232 232 235 230 227 230 229 228 230 231 229 229 233 237 239 235 232 229 223 219 214 211 211 213 211 202 198 196 196 198 198
288 285 283 281 280 279 278 278 277 276 275 274 273 272 271 271 270 270 270 269 268 266 266 266 264 262 262 261 258 253 246 243 240 236 238 241 242 244 242 237 230 226 225 224 224 225 226 225 224 225 227 229 227 228 230 226 228 232 232 232 228 227 228 229 230 229 230 230 230 231 234 237 236 234 228 223 221 216 214 211 208 206 201 199 197 196 198 198
289 288 285 282 280 279 278 277 277 276 275 274 273 272 271 270 270 269 269 269 268 266 265 265 264 262 261 260 256 250 244 243 241 237 239 241 242 244 243 236 228 224 222 221 222 223 223 222 223 223 225 227 227 227 227 224 227 231 231 228 227 227 228 230 231 230 231 230 231 233 234 236 236 233 224 220 222 220 217 210 205 202 199 198 196 196 198 197
290 289 287 284 282 280 278 277 276 275 275 274 273 272 270 269 268 268 268 268 268 266 264 263 262 261 260 258 255 250 246 243 240 238 239 241 243 244 240 233 227 223 221 220 220 220 221 221 221 221 224 227 226 225 225 223 226 229 229 226 225 225 226 229 230 230 230 229 232 232 232 234 233 228 221 220 222 218 212 204 202 200 196 197 197 196 198 197
290 289 288 286 284 281 279 277 276 275 274 273 272 271 270 268 267 267 267 267 267 265 264 262 261 260 258 255 253 250 246 242 239 238 238 240 242 241 237 232 227 222 221 221 219 218 219 220 219 221 225 225 223 222 223 224 226 227 226 226 227 226 226 228 228 229 228 228 228 227 229 230 226 223 221 221 221 213 205 202 201 199 196 196 198 198 198 198
291 290 288 287 285 282 280 278 276 275 274 273 272 271 270 268 267 266 266 266 265 264 263 261 259 258 256 252 249 247 245 242 239 237 238 240 241 239 234 232 228 223 221 220 218 217 218 220 219 221 224 223 222 222 222 225 226 225 224 226 229 229 229 228 227 227 226 226 223 223 228 225 220 223 222 218 217 209 202 202 201 200 198 196 199 200 199 199
291 290 289 287 285 283 281 278 276 275 273 272 271 270 269 268 267 266 265 264 264 264 261 259 258 256 253 250 246 245 244 240 238 238 239 240 240 237 233 232 228 224 221 220 218 216 217 219 217 219 224 222 220 222 223 225 225 223 223 225 228 229 229 227 226 226 225 225 221 220 226 224 220 223 222 215 212 208 203 201 201 202 200 197 200 200 200 202
292 291 289 287 285 283 281 279 277 275 273 272 270 269 268 267 267 266 265 263 263 263 260 258 256 254 252 249 245 243 244 243 242 242 241 240 238 234 232 230 227 224 220 218 217 216 216 217 216 217 222 221 218 222 224 223 223 222 222 225 226 227 228 224 223 223 220 222 218 217 223 223 220 221 220 215 209 207 204 201 201 203 201 199 200 200 201 205
292 291 290 288 286 283 281 280 278 276 274 271 269 268 267 267 266 266 265 263 262 261 260 257 254 253 251 248 246 245 246 247 246 245 242 239 237 232 229 227 224 222 219 217 216 214 214 215 215 217 220 220 219 222 223 221 222 221 221 226 225 226 227 221 220 219 217 219 214 214 223 222 219 221 219 213 208 205 203 201 202 203 202 201 201 201 203 207
292 291 290 288 286 284 282 280 278 276 274 272 270 268 267 266 265 265 265 264 261 260 258 255 252 252 249 247 249 248 248 247 245 243 239 236 234 230 227 224 221 219 217 216 214 213 214 214 215 217 219 220 220 222 222 222 221 219 219 223 224 224 225 220 218 215 215 218 212 215 225 222 219 220 216 211 208 205 202 202 202 203 203 203 202 203 206 209
292 290 289 287 285 283 282 280 278 275 273 272 270 268 267 266 265 265 265 263 261 258 256 254 251 250 250 249 250 248 244 242 240 238 236 232 230 228 224 220 218 217 215 214 213 212 212 213 215 217 218 219 220 220 220 220 220 218 218 220 222 222 223 223 218 214 215 216 214 217 223 221 221 219 213 211 208 206 205 203 203 203 203 204 204 206 209 210
292 290 288 286 284 282 281 279 277 275 273 271 269 268 267 266 266 266 265 263 259 256 253 252 248 246 248 248 247 244 239 235 236 235 232 228 225 224 220 216 215 214 213 212 212 211 211 212 214 216 217 217 217 217 216 217 217 218 218 218 218 217 219 222 217 215 216 215 215 220 222 219 220 215 211 211 209 207 206 204 204 204 203 205 207 209 210 211
292 290 288 285 283 281 280 278 277 274 272 270 269 268 266 266 266 266 265 261 256 251 248 248 246 245 246 246 245 242 237 232 232 233 230 225 222 220 218 215 213 211 210 210 209 209 210 212 213 215 216 216 215 214 214 216 214 215 216 216 217 216 216 218 215 214 216 216 217 219 220 218 216 211 209 209 208 207 207 204 205 206 206 207 210 211 213 213
293 290 287 285 283 281 278 277 275 274 272 269 268 266 265 265 265 264 261 256 251 247 246 245 244 245 243 241 241 239 235 232 231 231 228 224 220 217 216 214 212 209 207 208 209 209 210 212 213 214 215 214 214 213 214 216 213 211 211 212 214 215 215 216 215 214 214 216 216 216 217 217 214 210 210 210 207 207 208 205 205 207 208 211 212 214 216 215
293 291 288 285 283 281 278 276 274 273 271 268 266 265 264 263 261 259 255 249 245 244 246 241 237 240 242 238 237 237 235 233 230 229 225 221 217 214 214 213 211 208 207 209 210 210 210 211 212 214 214 212 212 212 213 214 210 209 210 210 210 210 214 215 216 216 214 215 216 215 215 214 210 209 212 212 209 210 209 207 208 209 211 214 215 217 217 215
293 291 289 286 284 281 278 276 274 272 270 267 265 263 261 259 257 256 252 246 244 245 246 240 234 237 242 239 236 236 234 230 228 225 221 218 215 211 211 211 209 209 210 209 209 210 210 212 214 214 213 210 210 211 212 214 210 208 209 210 210 210 211 213 215 216 215 215 216 215 214 211 208 209 211 211 210 212 211 208 210 212 214 216 217 219 218 217
294 292 290 287 285 282 279 276 273 271 269 264 262 260 257 256 256 255 252 248 246 246 246 242 237 237 240 238 235 234 232 229 227 224 220 217 213 210 209 208 208 211 211 207 208 210 212 215 215 213 211 208 209 210 210 213 211 209 209 208 210 210 209 210 214 218 216 215 215 212 212 211 209 209 210 210 211 213 213 211 213 215 216 218 219 220 221 220
295 292 290 288 286 283 281 277 273 270 266 261 257 256 254 255 255 254 253 250 247 245 244 242 239 238 238 237 235 233 231 228 227 224 218 214 213 212 209 207 209 210 209 207 207 209 213 216 212 210 209 207 209 210 209 210 210 209 210 208 208 209 210 210 213 217 216 215 214 210 211 212 211 212 212 211 213 215 215 214 216 216 217 218 219 221 222 222
297 293 291 289 286 284 281 278 273 268 263 257 253 252 252 254 253 252 252 251 249 244 241 239 236 235 234 234 232 228 226 223 223 224 216 211 213 212 209 207 208 208 207 208 208 209 213 214 209 208 208 205 208 209 208 210 211 210 209 208 207 207 209 210 211 215 215 215 214 209 211 214 214 216 217 216 216 216 214 214 217 219 218 218 219 221 221 220
300 295 291 289 287 284 282 279 273 265 259 255 251 250 250 251 250 250 249 249 248 243 238 236 233 231 230 229 225 221 221 220 219 220 215 210 210 210 210 207 205 207 209 209 209 210 213 211 207 207 207 204 207 209 208 210 212 211 210 208 207 206 208 209 212 216 215 214 214 210 213 218 216 215 219 220 219 217 214 213 219 220 219 217 217 219 219 217
302 297 291 289 287 285 284 279 272 263 257 252 250 248 247 247 246 247 246 246 245 240 236 232 230 229 225 223 220 217 219 220 218 217 214 210 208 208 209 208 207 208 207 206 208 211 213 210 205 206 207 205 207 209 209 209 211 213 213 210 207 206 207 209 213 215 213 214 215 215 217 219 217 217 218 217 218 218 214 216 221 221 218 216 216 216 214 213
305 299 293 289 288 287 285 279 270 262 255 250 246 244 244 243 243 241 239 242 242 235 230 227 224 223 219 217 215 213 217 221 218 215 213 210 208 208 208 207 209 208 204 204 209 212 212 210 207 205 206 206 207 210 210 208 210 213 212 208 208 208 207 209 213 214 214 216 216 218 221 220 219 221 220 217 217 216 214 218 220 219 219 217 216 215 211 211
309 302 294 291 290 288 285 277 268 259 252 247 242 241 243 240 238 236 233 237 238 228 222 223 220 217 216 213 208 208 216 217 213 212 211 209 207 209 209 207 207 207 205 205 210 212 208 207 208 206 205 207 208 209 210 209 210 213 210 205 206 208 207 210 213 215 218 220 219 218 222 225 223 222 221 219 218 216 215 218 219 218 219 217 216 214 211 211
312 304 297 293 291 288 284 278 268 255 247 244 240 241 243 236 231 228 226 229 226 217 216 217 216 214 213 210 205 209 215 211 209 210 207 206 206 208 209 208 206 203 204 205 207 210 208 205 207 204 205 209 209 208 207 207 209 212 208 205 207 208 209 211 213 217 220 223 224 218 217 225 225 222 221 219 219 218 217 219 221 220 219 216 214 212 211 213
316 308 299 294 291 288 284 277 265 250 242 239 238 239 235 226 221 220 220 221 216 213 214 211 210 210 208 206 207 212 214 211 211 206 202 204 206 208 208 208 204 200 203 208 207 209 210 207 206 205 207 210 208 206 205 206 209 209 205 204 207 208 211 214 217 220 221 226 227 219 216 224 227 223 221 220 220 221 221 222 223 221 219 217 214 211 211 212
320 311 301 294 290 289 286 277 261 245 237 233 233 231 221 214 214 213 214 215 212 212 212 209 208 206 202 203 209 211 212 212 208 200 200 203 205 207 206 204 202 201 204 208 207 209 211 208 207 208 210 208 206 206 206 206 206 203 201 202 204 208 211 214 218 219 221 227 226 219 218 225 230 226 223 223 224 223 222 223 223 219 217 216 214 212 211 210
328 318 305 294 290 289 288 278 255 237 226 223 227 220 208 207 210 208 206 209 210 210 207 206 205 202 200 203 208 207 208 210 205 198 199 201 202 204 202 200 200 200 202 205 206 207 206 205 207 208 207 204 203 204 207 206 202 200 202 201 201 205 207 211 214 215 221 225 223 221 221 224 229 228 224 226 227 225 223 221 219 216 214 214 213 213 211 210
335 326 310 296 290 288 285 274 246 225 217 216 219 209 200 203 208 205 205 206 206 207 207 204 202 202 202 205 207 204 203 206 203 200 199 199 201 203 202 201 198 197 200 201 201 203 204 206 207 207 204 201 199 200 203 204 203 202 202 199 200 203 205 209 212 214 220 222 220 221 221 224 230 229 227 228 228 229 229 223 218 215 214 212 212 211 211 210
339 334 319 300 291 287 280 265 228 210 210 212 208 199 196 201 206 204 204 201 199 205 208 206 205 205 203 204 205 201 200 203 201 199 199 198 199 202 205 205 201 200 201 197 197 199 202 207 207 204 204 203 200 199 200 202 202 202 201 200 202 204 206 209 212 215 220 221 219 219 220 227 231 229 229 231 229 232 232 223 216 214 213 212 211 211 211 211
342 339 328 309 295 287 273 243 206 198 204 204 198 192 193 199 203 200 199 198 200 207 211 209 209 206 202 203 203 198 199 203 200 198 197 197 199 200 202 203 202 202 199 195 198 199 199 203 203 202 203 203 203 203 202 200 201 204 203 204 206 208 210 212 213 216 218 219 218 217 221 228 227 226 229 229 228 229 229 220 212 211 210 210 210 211 212 211
345 344 338 324 308 290 249 204 189 191 196 193 189 187 189 194 197 193 193 197 201 209 215 211 205 201 199 202 202 197 198 202 199 197 197 198 199 200 199 200 201 202 197 196 200 200 200 203 203 202 203 202 202 204 202 199 201 205 205 206 209 210 211 214 217 218 217 220 219 217 223 229 226 226 226 224 224 224 223 215 209 209 207 206 209 210 211 211
348 352 354 349 340 312 184 174 177 184 188 185 182 182 184 188 192 188 187 190 195 207 214 204 198 197 198 199 198 196 198 200 196 196 197 198 200 200 200 199 200 202 199 197 198 199 199 202 203 203 204 202 201 200 201 202 202 202 204 207 208 208 209 212 216 217 218 223 222 219 223 226 227 228 224 221 222 219 218 214 208 207 206 206 209 210 211 213
351 357 6 11 23 99 146 159 167 175 182 180 177 177 180 184 186 182 181 184 190 199 199 189 191 196 195 195 195 193 195 196 195 196 196 197 200 200 199 199 200 200 200 199 200 201 199 198 201 202 202 203 202 199 202 206 204 203 206 206 204 206 212 214 214 214 217 222 223 220 221 223 224 227 223 219 219 217 216 214 209 208 207 207 209 210 211 213
351 355 6 20 46 104 137 155 163 171 174 172 174 177 177 178 178 174 176 183 188 192 188 180 188 193 189 191 193 191 192 193 194 195 195 196 201 201 198 199 200 199 200 199 199 202 200 197 201 203 202 201 200 200 202 207 209 209 207 204 203 208 212 212 213 214 216 221 223 220 221 224 225 224 222 220 218 216 214 214 211 210 209 208 208 210 211 209
351 352 359 11 35 116 143 154 164 169 165 166 173 177 175 174 174 169 171 180 188 189 185 181 185 188 186 189 190 190 191 191 192 194 195 196 201 201 199 199 199 198 199 198 197 200 200 198 200 203 202 199 199 203 203 203 207 208 206 204 207 212 212 210 213 216 216 220 223 221 221 226 227 225 223 221 218 215 213 213 213 210 209 207 206 208 210 209
352 353 352 354 9 150 154 153 158 158 157 162 169 172 173 172 173 172 169 173 183 187 187 189 187 183 184 186 187 188 190 189 189 192 196 196 197 201 200 199 198 197 198 198 198 199 199 201 200 199 200 201 203 206 205 201 202 203 204 204 205 209 211 211 214 217 218 219 221 223 225 226 226 228 226 222 218 215 212 212 212 209 206 206 204 204 205 207
353 355 360 10 71 135 143 143 150 151 152 161 163 163 167 169 172 179 176 175 182 185 188 192 187 182 182 182 184 187 187 186 187 190 194 195 196 201 202 199 196 195 196 197 199 200 199 200 201 199 201 204 205 205 204 202 203 205 206 205 205 207 207 209 213 216 218 219 219 222 227 226 224 227 228 222 216 213 211 209 209 206 203 202 202 200 201 205
5 11 20 45 106 128 132 136 144 147 148 155 155 154 160 164 168 177 177 176 179 180 182 183 180 179 180 179 181 185 186 185 186 189 191 193 195 199 198 196 193 193 195 196 198 200 200 199 200 200 203 205 205 205 205 204 204 207 209 208 208 209 209 211 215 213 213 217 218 220 226 227 225 226 224 218 213 210 208 204 202 203 202 200 198 197 198 202
21 29 40 76 115 122 124 132 138 143 145 149 149 150 156 160 162 169 171 171 172 173 174 175 174 175 176 177 179 183 184 184 186 189 190 190 194 196 191 190 190 191 194 195 195 196 197 199 199 198 200 203 205 206 206 205 204 207 210 208 208 211 212 215 217 214 214 217 216 219 224 223 225 225 219 211 207 206 206 201 197 199 202 199 195 195 195 195
28 38 53 79 110 118 120 126 133 140 142 142 142 143 150 154 157 165 166 163 166 167 167 170 172 173 174 176 180 182 184 184 184 188 188 187 191 192 185 185 188 191 194 195 193 193 196 199 199 195 193 197 200 202 205 206 207 209 209 207 208 209 210 214 216 216 219 218 215 219 222 219 222 221 211 205 202 202 202 201 198 197 198 197 194 194 193 189
32 46 59 77 101 113 119 125 130 135 133 130 132 136 141 146 153 164 166 164 168 166 165 168 170 174 177 177 179 182 185 184 183 185 186 185 187 187 183 184 188 190 193 193 191 191 196 199 199 199 197 198 200 202 204 204 206 208 208 207 208 207 207 211 213 215 218 216 214 217 218 217 220 216 205 202 201 199 199 199 198 196 195 196 195 194 192 189
38 51 61 78 96 110 122 128 129 129 126 123 128 129 129 135 143 155 161 165 168 164 164 165 164 167 172 171 173 177 180 182 183 183 184 185 185 184 182 184 187 188 189 188 187 190 197 199 200 202 204 205 206 207 206 203 203 207 207 206 208 208 208 210 213 215 216 213 214 217 215 214 217 215 209 204 200 199 199 196 196 195 195 195 195 193 193 192
45 53 62 77 93 110 122 127 129 128 123 120 120 117 120 129 134 138 143 150 156 157 159 160 160 162 164 165 168 173 175 178 181 181 182 184 185 183 181 183 187 189 188 187 188 192 198 200 199 201 205 207 207 207 208 207 206 206 206 206 207 207 208 211 214 215 211 211 215 216 213 214 215 213 211 206 201 200 200 197 195 194 194 195 194 193 194 194
50 58 68 78 90 103 110 117 126 129 124 117 114 115 122 129 130 131 136 140 146 154 155 152 155 159 162 165 166 169 172 172 174 178 180 181 182 182 180 181 187 191 190 190 192 195 199 201 200 200 203 204 205 207 208 210 209 208 206 205 206 207 208 212 214 213 211 214 216 212 211 215 215 212 211 209 203 200 198 196 195 194 194 195 194 194 196 196
55 61 69 74 83 95 100 110 121 123 121 115 115 126 130 129 132 135 138 136 137 150 155 152 152 151 151 158 160 163 169 168 168 174 177 179 182 182 182 182 186 191 191 192 196 199 201 202 200 200 203 204 208 210 208 208 208 208 208 207 206 207 209 212 213 213 213 217 218 214 213 219 220 215 212 209 202 198 196 195 195 194 195 196 196 197 199 199
56 58 62 67 79 93 101 111 117 114 116 117 120 130 131 133 136 132 137 142 139 146 152 152 155 153 149 154 157 158 162 164 167 172 174 177 179 180 183 186 188 189 189 192 197 199 201 202 199 201 205 207 211 211 208 208 207 206 208 210 207 207 209 211 211 211 212 215 216 213 214 219 219 211 208 207 202 198 197 196 196 196 196 197 198 199 200 201
54 57 63 70 79 88 93 104 113 110 112 120 125 127 128 135 134 121 132 151 157 159 158 153 154 155 153 154 153 154 157 162 169 176 178 178 179 181 185 188 191 190 189 192 197 198 199 200 198 201 206 208 209 209 206 205 205 205 207 208 207 207 209 210 211 211 211 208 206 207 212 214 210 203 202 205 202 201 200 199 198 199 197 197 198 199 201 202
43 51 61 67 72 78 82 92 107 116 118 126 135 135 133 137 135 126 136 148 155 164 164 156 150 153 158 158 152 151 159 170 178 181 181 182 184 188 190 191 194 194 192 193 196 197 198 198 198 202 205 207 208 208 204 200 201 206 208 207 207 208 209 210 211 212 211 206 204 209 212 207 202 200 201 203 203 204 203 203 203 202 200 199 199 199 201 202